Location: Bukit Nyuki
(2.5885°N, 113.7476°E)
Time: 05:14:00
(UTC+00:00)

Cosmos 1980 - Pass Details

Date: 18 May 2021
Orbit: 838 x 848 km, 71.0° (Epoch: 22 June)

Event Time Altitude Azimuth Distance (km) Brightness Sun altitude
Exits shadow 21:10:47 21° 227° (SW) 1,782 4.8 -15.7°
Maximum altitude 21:14:03 42° 286° (WNW) 1,184 4.1 -14.9°
Drops below altitude 10° 21:19:19 10° 355° (N) 2,449 6.3 -13.7°
Sets 21:21:53 0° 3° (N) 3,383 7.2 -13.1°
